| time (UTC) | temp F | wind direction | speed knots | gust knots | rain 1hr in | rain 24hr in | rain mn in | humidity % | barometer mb |
| 20260505152916 | 82 | 142 | 0.9 | 0.9 | 0.00 | 0.00 | 0.00 | 46 | 1018.1 |
| 20260505152414 | 82 | 116 | 0.9 | 0.9 | 0.00 | 0.00 | 0.00 | 43 | 1018.0 |
| 20260505151913 | 82 | 171 | 0.9 | 0.9 | 0.00 | 0.00 | 0.00 | 46 | 1017.9 |
| 20260505151410 | 82 | 143 | 1.7 | 1.7 | 0.00 | 0.00 | 0.00 | 43 | 1017.8 |
| 20260505150907 | 83 | 93 | 1.7 | 1.7 | 0.00 | 0.00 | 0.00 | 43 | 1017.9 |
| 20260505150404 | 82 | 192 | 0.0 | 0.9 | 0.00 | 0.00 | 0.00 | 43 | 1018.0 |
| 20260505140328 | 75 | 203 | 0.0 | 0.0 | 0.00 | 0.00 | 0.00 | 58 | 1017.8 |
| 20260505130252 | 71 | 233 | 0.0 | 0.0 | 0.00 | 0.00 | 0.00 | 69 | 1017.4 |
| 20260505124742 | 69 | 223 | 0.0 | 0.0 | 0.00 | 0.00 | 0.00 | 75 | 1017.1 |
| 20260505124239 | 69 | 214 | 0.9 | 0.9 | 0.00 | 0.00 | 0.00 | 75 | 1017.1 |
| 20260505123734 | 68 | 213 | 0.0 | 0.0 | 0.00 | 0.00 | 0.00 | 78 | 1017.4 |
| 20260505123232 | 67 | 213 | 0.0 | 0.0 | 0.00 | 0.00 | 0.00 | 80 | 1017.5 |
| 20260505122728 | 66 | 212 | 0.0 | 0.0 | 0.00 | 0.00 | 0.00 | 83 | 1017.3 |
| 20260505122225 | 64 | 213 | 0.0 | 0.0 | 0.00 | 0.00 | 0.00 | 88 | 1017.3 |
| 20260505121722 | 63 | 213 | 0.0 | 0.0 | 0.00 | 0.00 | 0.00 | 93 | 1017.3 |
| 20260505121219 | 62 | 213 | 0.0 | 0.0 | 0.00 | 0.00 | 0.00 | 95 | 1017.1 |
| 20260505120715 | 62 | 213 | 0.0 | 0.0 | 0.00 | 0.00 | 0.00 | 95 | 1017.0 |
| 20260505120211 | 61 | 213 | 0.0 | 0.0 | 0.00 | 0.00 | 0.00 | 96 | 1017.1 |
| 20260505115704 | 60 | 213 | 0.0 | 0.0 | 0.00 | 0.00 | 0.00 | 96 | 1017.0 |
| 20260505115203 | 60 | 213 | 0.0 | 0.0 | 0.00 | 0.00 | 0.00 | 96 | 1016.9 |
| 20260505114700 | 59 | 212 | 0.0 | 0.0 | 0.00 | 0.00 | 0.00 | 96 | 1017.0 |
| 20260505114155 | 59 | 212 | 0.0 | 0.0 | 0.00 | 0.00 | 0.00 | 96 | 1016.9 |
| 20260505113652 | 58 | 213 | 0.0 | 0.0 | 0.00 | 0.00 | 0.00 | 96 | 1016.8 |
| 20260505113149 | 58 | 213 | 0.0 | 0.0 | 0.00 | 0.00 | 0.00 | 96 | 1016.9 |
| 20260505112645 | 57 | 213 | 0.0 | 0.0 | 0.00 | 0.00 | 0.00 | 95 | 1016.8 |
| 20260505112143 | 57 | 213 | 0.0 | 0.0 | 0.00 | 0.00 | 0.00 | 95 | 1016.8 |
| 20260505111642 | 57 | 213 | 0.0 | 0.0 | 0.00 | 0.00 | 0.00 | 95 | 1016.8 |
| 20260505111138 | 57 | 213 | 0.0 | 0.0 | 0.00 | 0.00 | 0.00 | 95 | 1016.8 |
| 20260505110635 | 57 | 213 | 0.0 | 0.0 | 0.00 | 0.00 | 0.00 | 95 | 1016.4 |
| 20260505110132 | 57 | 213 | 0.0 | 0.0 | 0.00 | 0.00 | 0.00 | 95 | 1016.6 |
| 20260505102108 | 57 | 213 | 0.0 | 0.0 | 0.00 | 0.00 | 0.00 | 94 | 1016.5 |
| 20260505101607 | 57 | 213 | 0.0 | 0.0 | 0.00 | 0.00 | 0.00 | 94 | 1016.3 |
| 20260505101102 | 57 | 213 | 0.0 | 0.0 | 0.00 | 0.00 | 0.00 | 94 | 1016.2 |
| 20260505100559 | 57 | 213 | 0.0 | 0.0 | 0.00 | 0.00 | 0.00 | 94 | 1016.4 |
| 20260505100056 | 57 | 213 | 0.0 | 0.0 | 0.00 | 0.00 | 0.00 | 94 | 1016.1 |
| 20260505095552 | 57 | 213 | 0.0 | 0.0 | 0.00 | 0.00 | 0.00 | 94 | 1016.1 |
| 20260505095049 | 57 | 213 | 0.0 | 0.0 | 0.00 | 0.00 | 0.00 | 94 | 1016.2 |
| 20260505094545 | 57 | 213 | 0.0 | 0.0 | 0.00 | 0.00 | 0.00 | 94 | 1015.9 |
| 20260505094041 | 57 | 213 | 0.0 | 0.0 | 0.00 | 0.00 | 0.00 | 94 | 1016.1 |
| 20260505093538 | 57 | 213 | 0.0 | 0.0 | 0.00 | 0.00 | 0.00 | 93 | 1016.0 |
| 20260505093035 | 57 | 213 | 0.0 | 0.0 | 0.00 | 0.00 | 0.00 | 93 | 1015.8 |
| 20260505092532 | 57 | 213 | 0.0 | 0.0 | 0.00 | 0.00 | 0.00 | 93 | 1015.7 |
| 20260505092031 | 57 | 213 | 0.0 | 0.0 | 0.00 | 0.00 | 0.00 | 93 | 1015.6 |
| 20260505091527 | 57 | 213 | 0.0 | 0.0 | 0.00 | 0.00 | 0.00 | 93 | 1015.9 |
| 20260505091026 | 57 | 213 | 0.0 | 0.0 | 0.00 | 0.00 | 0.00 | 93 | 1015.7 |
| 20260505090524 | 57 | 213 | 0.0 | 0.0 | 0.00 | 0.00 | 0.00 | 93 | 1015.7 |
| 20260505090021 | 57 | 213 | 0.0 | 0.0 | 0.00 | 0.00 | 0.00 | 92 | 1015.7 |
| 20260505085519 | 57 | 213 | 0.0 | 0.0 | 0.00 | 0.00 | 0.00 | 92 | 1015.7 |
| 20260505085017 | 57 | 213 | 0.0 | 0.0 | 0.00 | 0.00 | 0.00 | 92 | 1015.9 |
| 20260505084515 | 58 | 213 | 0.0 | 0.0 | 0.00 | 0.00 | 0.00 | 92 | 1015.7 |
| 20260505084012 | 58 | 213 | 0.0 | 0.0 | 0.00 | 0.00 | 0.00 | 92 | 1015.7 |
| 20260505083509 | 58 | 213 | 0.0 | 0.0 | 0.00 | 0.00 | 0.00 | 92 | 1015.8 |
| 20260505083006 | 58 | 213 | 0.0 | 0.0 | 0.00 | 0.00 | 0.00 | 91 | 1015.5 |
| 20260505082501 | 58 | 213 | 0.0 | 0.0 | 0.00 | 0.00 | 0.00 | 91 | 1015.4 |
| 20260505081959 | 58 | 213 | 0.0 | 0.0 | 0.00 | 0.00 | 0.00 | 91 | 1015.3 |
| 20260505081455 | 58 | 213 | 0.0 | 0.0 | 0.00 | 0.00 | 0.00 | 91 | 1015.6 |
| 20260505080952 | 58 | 213 | 0.0 | 0.0 | 0.00 | 0.00 | 0.00 | 91 | 1015.6 |
| 20260505080448 | 58 | 213 | 0.0 | 0.0 | 0.00 | 0.00 | 0.00 | 90 | 1015.5 |
| 20260505075944 | 58 | 213 | 0.0 | 0.0 | 0.00 | 0.00 | 0.00 | 90 | 1015.7 |
| 20260505075440 | 58 | 213 | 0.0 | 0.0 | 0.00 | 0.00 | 0.00 | 89 | 1015.5 |
| 20260505074938 | 58 | 213 | 0.0 | 0.0 | 0.00 | 0.00 | 0.00 | 89 | 1015.5 |
| 20260505074435 | 58 | 213 | 0.0 | 0.0 | 0.00 | 0.00 | 0.00 | 90 | 1015.6 |
| 20260505073932 | 58 | 213 | 0.0 | 0.0 | 0.00 | 0.00 | 0.00 | 90 | 1015.5 |
| 20260505073430 | 58 | 213 | 0.0 | 0.0 | 0.00 | 0.00 | 0.00 | 90 | 1015.4 |
| 20260505072927 | 58 | 213 | 0.0 | 0.0 | 0.00 | 0.00 | 0.00 | 90 | 1015.6 |
| 20260505072423 | 58 | 213 | 0.0 | 0.0 | 0.00 | 0.00 | 0.00 | 89 | 1015.6 |
| 20260505071919 | 59 | 213 | 0.0 | 0.0 | 0.00 | 0.00 | 0.00 | 89 | 1015.7 |
| 20260505071415 | 59 | 213 | 0.0 | 0.0 | 0.00 | 0.00 | 0.00 | 89 | 1015.7 |
| 20260505070914 | 59 | 213 | 0.0 | 0.0 | 0.00 | 0.00 | 0.00 | 88 | 1015.8 |
| 20260505070409 | 59 | 213 | 0.0 | 0.0 | 0.00 | 0.00 | 0.00 | 88 | 1016.0 |
| 20260505065905 | 59 | 213 | 0.0 | 0.0 | 0.00 | 0.00 | 0.00 | 87 | 1015.9 |
| 20260505065402 | 59 | 213 | 0.0 | 0.0 | 0.00 | 0.00 | 0.00 | 87 | 1016.1 |
| 20260505064859 | 59 | 213 | 0.0 | 0.0 | 0.00 | 0.00 | 0.00 | 86 | 1016.2 |
| 20260505064356 | 59 | 213 | 0.0 | 0.0 | 0.00 | 0.00 | 0.00 | 85 | 1016.0 |
| 20260505063855 | 60 | 213 | 0.0 | 0.0 | 0.00 | 0.00 | 0.00 | 84 | 1016.2 |
| 20260505063355 | 60 | 213 | 0.0 | 0.0 | 0.00 | 0.00 | 0.00 | 84 | 1016.1 |
| 20260505062852 | 60 | 213 | 0.0 | 0.0 | 0.00 | 0.00 | 0.00 | 83 | 1016.2 |
| 20260505062350 | 60 | 213 | 0.0 | 0.0 | 0.00 | 0.00 | 0.00 | 83 | 1016.2 |
| 20260505061846 | 60 | 213 | 0.0 | 0.0 | 0.00 | 0.00 | 0.00 | 83 | 1016.5 |
| 20260505061344 | 61 | 213 | 0.0 | 0.0 | 0.00 | 0.00 | 0.00 | 82 | 1016.7 |
| 20260505060842 | 61 | 213 | 0.0 | 0.0 | 0.00 | 0.00 | 0.00 | 82 | 1016.6 |
| 20260505060338 | 61 | 213 | 0.0 | 0.0 | 0.00 | 0.00 | 0.00 | 81 | 1016.8 |
| 20260505055834 | 62 | 213 | 0.0 | 0.0 | 0.00 | 0.00 | 0.00 | 80 | 1016.7 |
| 20260505055330 | 62 | 213 | 0.0 | 0.0 | 0.00 | 0.00 | 0.00 | 79 | 1016.6 |
| 20260505054828 | 62 | 213 | 0.0 | 0.0 | 0.00 | 0.00 | 0.00 | 78 | 1016.7 |
| 20260505054325 | 63 | 213 | 0.0 | 0.0 | 0.00 | 0.00 | 0.00 | 76 | 1016.9 |
| 20260505053823 | 63 | 213 | 0.0 | 0.0 | 0.00 | 0.00 | 0.00 | 74 | 1016.8 |
| 20260505053320 | 64 | 213 | 0.0 | 0.0 | 0.00 | 0.00 | 0.00 | 73 | 1017.0 |
| 20260505052817 | 64 | 213 | 0.0 | 0.0 | 0.00 | 0.00 | 0.00 | 71 | 1017.0 |
| 20260505052314 | 65 | 213 | 0.0 | 0.0 | 0.00 | 0.00 | 0.00 | 70 | 1017.3 |
| 20260505051811 | 65 | 213 | 0.0 | 0.0 | 0.00 | 0.00 | 0.00 | 70 | 1017.2 |
| 20260505051308 | 66 | 213 | 0.0 | 0.0 | 0.00 | 0.00 | 0.00 | 69 | 1017.1 |
| 20260505050806 | 67 | 213 | 0.0 | 0.0 | 0.00 | 0.00 | 0.00 | 68 | 1017.2 |
| 20260505050305 | 67 | 213 | 0.9 | 0.9 | 0.00 | 0.00 | 0.00 | 67 | 1017.4 |
| 20260505041734 | 68 | 203 | 0.0 | 0.0 | 0.00 | 0.00 | 0.00 | 64 | 1017.4 |
| 20260505041231 | 69 | 222 | 0.0 | 0.0 | 0.00 | 0.00 | 0.00 | 63 | 1017.5 |
| 20260505040729 | 69 | 156 | 0.0 | 0.0 | 0.00 | 0.00 | 0.00 | 63 | 1017.4 |
| 20260505040226 | 69 | 174 | 0.0 | 0.0 | 0.00 | 0.00 | 0.00 | 63 | 1017.6 |
| 20260505035723 | 68 | 137 | 0.9 | 0.9 | 0.00 | 0.00 | 0.00 | 64 | 1017.3 |
| 20260505035219 | 69 | 164 | 0.0 | 0.0 | 0.00 | 0.00 | 0.00 | 63 | 1017.4 |
| 20260505034716 | 69 | 254 | 0.0 | 0.0 | 0.00 | 0.00 | 0.00 | 63 | 1017.5 |
| 20260505034213 | 69 | 166 | 0.9 | 0.9 | 0.00 | 0.00 | 0.00 | 63 | 1017.7 |
| 20260505033709 | 69 | 172 | 0.0 | 0.0 | 0.00 | 0.00 | 0.00 | 63 | 1017.5 |
| 20260505033207 | 69 | 150 | 0.0 | 0.0 | 0.00 | 0.00 | 0.00 | 63 | 1017.4 |
| 20260505032705 | 69 | 162 | 0.0 | 0.9 | 0.00 | 0.00 | 0.00 | 63 | 1017.4 |
| 20260505032200 | 69 | 152 | 0.9 | 0.9 | 0.00 | 0.00 | 0.00 | 63 | 1017.4 |
| 20260505031658 | 69 | 332 | 0.9 | 1.7 | 0.00 | 0.00 | 0.00 | 63 | 1017.1 |
| 20260505031154 | 69 | 122 | 0.9 | 0.9 | 0.00 | 0.00 | 0.00 | 63 | 1017.4 |
| 20260505030651 | 69 | 125 | 0.0 | 0.0 | 0.00 | 0.00 | 0.00 | 64 | 1017.6 |
| 20260505030147 | 69 | 125 | 0.0 | 0.0 | 0.00 | 0.00 | 0.00 | 63 | 1017.4 |
| 20260505025643 | 69 | 125 | 0.0 | 0.0 | 0.00 | 0.00 | 0.00 | 64 | 1017.2 |
| 20260505025142 | 69 | 84 | 0.0 | 0.0 | 0.00 | 0.00 | 0.00 | 64 | 1017.3 |
| 20260505024639 | 69 | 195 | 0.0 | 0.0 | 0.00 | 0.00 | 0.00 | 64 | 1017.4 |
| 20260505024136 | 69 | 195 | 0.0 | 0.0 | 0.00 | 0.00 | 0.00 | 64 | 1017.1 |
| 20260505023633 | 69 | 160 | 0.9 | 0.9 | 0.00 | 0.00 | 0.00 | 65 | 1017.2 |
| 20260505023131 | 69 | 175 | 0.0 | 0.0 | 0.00 | 0.00 | 0.00 | 63 | 1017.1 |
| 20260505022628 | 69 | 147 | 0.0 | 0.0 | 0.00 | 0.00 | 0.00 | 63 | 1017.2 |
| 20260505022125 | 69 | 152 | 0.9 | 1.7 | 0.00 | 0.00 | 0.00 | 64 | 1017.2 |
| 20260505021621 | 69 | 131 | 0.0 | 0.9 | 0.00 | 0.00 | 0.00 | 64 | 1017.3 |
| 20260505021118 | 69 | 132 | 0.0 | 0.0 | 0.00 | 0.00 | 0.00 | 64 | 1017.1 |
| 20260505020614 | 69 | 129 | 0.0 | 0.9 | 0.00 | 0.00 | 0.00 | 64 | 1017.3 |
| 20260505020110 | 69 | 42 | 0.0 | 0.0 | 0.00 | 0.00 | 0.00 | 63 | 1017.4 |
| 20260505015608 | 69 | 179 | 0.9 | 0.9 | 0.00 | 0.00 | 0.00 | 64 | 1017.2 |
| 20260505015104 | 69 | 189 | 0.0 | 0.0 | 0.00 | 0.00 | 0.00 | 64 | 1017.2 |
| 20260505014601 | 69 | 198 | 0.0 | 0.0 | 0.00 | 0.00 | 0.00 | 64 | 1017.2 |
| 20260505014058 | 69 | 213 | 0.0 | 0.0 | 0.00 | 0.00 | 0.00 | 64 | 1017.2 |
| 20260505013555 | 69 | 130 | 0.0 | 0.0 | 0.00 | 0.00 | 0.00 | 65 | 1017.2 |
| 20260505013052 | 69 | 130 | 0.0 | 0.0 | 0.00 | 0.00 | 0.00 | 65 | 1017.0 |
| 20260505012550 | 69 | 129 | 0.9 | 0.9 | 0.00 | 0.00 | 0.00 | 65 | 1016.9 |
| 20260505012047 | 69 | 142 | 0.0 | 0.0 | 0.00 | 0.00 | 0.00 | 65 | 1017.3 |
| 20260505011543 | 69 | 119 | 0.0 | 0.0 | 0.00 | 0.00 | 0.00 | 65 | 1017.1 |
| 20260505011040 | 69 | 119 | 0.0 | 0.0 | 0.00 | 0.00 | 0.00 | 64 | 1017.2 |
| 20260505010535 | 69 | 119 | 0.0 | 0.0 | 0.00 | 0.00 | 0.00 | 64 | 1017.1 |
| 20260505010032 | 69 | 122 | 0.0 | 0.0 | 0.00 | 0.00 | 0.00 | 64 | 1016.9 |
| 20260505005528 | 69 | 291 | 0.0 | 0.0 | 0.00 | 0.00 | 0.00 | 65 | 1016.8 |
| 20260505005026 | 69 | 293 | 0.0 | 0.0 | 0.00 | 0.00 | 0.00 | 64 | 1016.9 |
| 20260505004523 | 69 | 293 | 0.0 | 0.0 | 0.00 | 0.00 | 0.00 | 64 | 1016.8 |
| 20260505004020 | 69 | 293 | 0.0 | 0.0 | 0.00 | 0.00 | 0.00 | 63 | 1016.8 |
| 20260505003517 | 69 | 291 | 0.0 | 0.0 | 0.00 | 0.00 | 0.00 | 63 | 1016.7 |
| 20260505003014 | 69 | 156 | 0.0 | 0.0 | 0.00 | 0.00 | 0.00 | 63 | 1016.6 |
| 20260505002509 | 69 | 191 | 0.9 | 0.9 | 0.00 | 0.00 | 0.00 | 63 | 1016.7 |
| 20260505002008 | 70 | 139 | 0.0 | 0.0 | 0.00 | 0.00 | 0.00 | 62 | 1016.8 |
| 20260505001505 | 70 | 182 | 0.9 | 0.0 | 0.00 | 0.00 | 0.00 | 63 | 1016.9 |
| 20260505001002 | 70 | 103 | 0.0 | 0.0 | 0.00 | 0.00 | 0.00 | 62 | 1016.7 |
| 20260505000500 | 70 | 224 | 0.9 | 0.9 | 0.00 | 0.00 | 0.00 | 62 | 1016.7 |
| 20260504235956 | 70 | 176 | 0.0 | 0.9 | 0.00 | 0.00 | 0.00 | 61 | 1016.9 |
| 20260504235454 | 71 | 183 | 0.0 | 0.0 | 0.00 | 0.00 | 0.00 | 61 | 1016.7 |
| 20260504234950 | 71 | 167 | 0.0 | 0.0 | 0.00 | 0.00 | 0.00 | 61 | 1016.7 |
| 20260504234447 | 71 | 138 | 0.9 | 0.9 | 0.00 | 0.00 | 0.00 | 60 | 1016.5 |
| 20260504233944 | 71 | 144 | 0.9 | 0.9 | 0.00 | 0.00 | 0.00 | 61 | 1016.6 |
| 20260504233439 | 71 | 130 | 0.9 | 0.9 | 0.00 | 0.00 | 0.00 | 60 | 1016.5 |
| 20260504232937 | 71 | 100 | 0.9 | 0.9 | 0.00 | 0.00 | 0.00 | 59 | 1016.6 |
| 20260504232434 | 71 | 225 | 0.0 | 0.9 | 0.00 | 0.00 | 0.00 | 60 | 1016.6 |
| 20260504231931 | 72 | 139 | 0.0 | 0.0 | 0.00 | 0.00 | 0.00 | 60 | 1016.6 |
| 20260504231427 | 72 | 115 | 0.9 | 0.9 | 0.00 | 0.00 | 0.00 | 59 | 1016.4 |
| 20260504230923 | 72 | 123 | 0.9 | 0.9 | 0.00 | 0.00 | 0.00 | 59 | 1016.4 |
| 20260504230420 | 73 | 157 | 0.9 | 1.7 | 0.00 | 0.00 | 0.00 | 59 | 1016.4 |
| 20260504225920 | 73 | 161 | 1.7 | 2.6 | 0.00 | 0.00 | 0.00 | 59 | 1016.5 |
| 20260504225416 | 73 | 246 | 0.9 | 1.7 | 0.00 | 0.00 | 0.00 | 60 | 1016.5 |
| 20260504224913 | 73 | 197 | 0.0 | 0.0 | 0.00 | 0.00 | 0.00 | 59 | 1016.7 |
| 20260504224410 | 73 | 158 | 1.7 | 3.5 | 0.00 | 0.00 | 0.00 | 58 | 1016.6 |
| 20260504223907 | 73 | 160 | 0.0 | 0.0 | 0.00 | 0.00 | 0.00 | 58 | 1016.7 |
| 20260504223402 | 73 | 142 | 0.0 | 0.0 | 0.00 | 0.00 | 0.00 | 58 | 1016.5 |
| 20260504222858 | 73 | 122 | 0.9 | 0.9 | 0.00 | 0.00 | 0.00 | 57 | 1016.6 |
| 20260504222355 | 73 | 117 | 0.9 | 0.9 | 0.00 | 0.00 | 0.00 | 56 | 1016.6 |
| 20260504221854 | 74 | 150 | 0.9 | 0.9 | 0.00 | 0.00 | 0.00 | 55 | 1016.8 |
| 20260504221350 | 74 | 138 | 0.9 | 2.6 | 0.00 | 0.00 | 0.00 | 56 | 1016.7 |
| 20260504220848 | 74 | 343 | 0.0 | 0.0 | 0.00 | 0.00 | 0.00 | 54 | 1016.6 |
| 20260504220344 | 74 | 159 | 0.0 | 0.0 | 0.00 | 0.00 | 0.00 | 53 | 1016.6 |
| 20260504215841 | 74 | 162 | 0.9 | 0.9 | 0.00 | 0.00 | 0.00 | 54 | 1016.7 |
| 20260504215338 | 74 | 78 | 1.7 | 1.7 | 0.00 | 0.00 | 0.00 | 54 | 1016.8 |
| 20260504214834 | 74 | 130 | 1.7 | 1.7 | 0.00 | 0.00 | 0.00 | 52 | 1016.7 |
| 20260504214331 | 75 | 112 | 1.7 | 1.7 | 0.00 | 0.00 | 0.00 | 51 | 1016.6 |
| 20260504213828 | 75 | 163 | 0.9 | 0.9 | 0.00 | 0.00 | 0.00 | 52 | 1016.4 |
| 20260504213323 | 75 | 142 | 0.9 | 0.9 | 0.00 | 0.00 | 0.00 | 51 | 1016.5 |
| 20260504212821 | 75 | 273 | 0.9 | 0.9 | 0.00 | 0.00 | 0.00 | 50 | 1016.7 |
| 20260504212317 | 75 | 133 | 0.0 | 0.9 | 0.00 | 0.00 | 0.00 | 50 | 1016.7 |
| 20260504211815 | 75 | 118 | 0.9 | 1.7 | 0.00 | 0.00 | 0.00 | 51 | 1016.8 |
| 20260504211311 | 75 | 158 | 0.9 | 0.9 | 0.00 | 0.00 | 0.00 | 49 | 1016.8 |
| 20260504210808 | 75 | 33 | 0.9 | 0.9 | 0.00 | 0.00 | 0.00 | 48 | 1016.9 |
| 20260504210305 | 76 | 138 | 0.9 | 0.9 | 0.00 | 0.00 | 0.00 | 47 | 1016.8 |
| 20260504205803 | 76 | 180 | 0.9 | 0.0 | 0.00 | 0.00 | 0.00 | 47 | 1016.8 |
| 20260504205300 | 76 | 152 | 0.9 | 0.9 | 0.00 | 0.00 | 0.00 | 48 | 1016.8 |
| 20260504204758 | 76 | 357 | 1.7 | 1.7 | 0.00 | 0.00 | 0.00 | 47 | 1016.8 |
| 20260504204256 | 77 | 163 | 0.0 | 0.9 | 0.00 | 0.00 | 0.00 | 46 | 1016.7 |
| 20260504203755 | 77 | 233 | 0.0 | 0.0 | 0.00 | 0.00 | 0.00 | 47 | 1016.8 |
| 20260504203252 | 77 | 183 | 0.9 | 0.9 | 0.00 | 0.00 | 0.00 | 46 | 1017.0 |
| 20260504202752 | 77 | 190 | 0.0 | 0.0 | 0.00 | 0.00 | 0.00 | 44 | 1016.9 |
| 20260504202250 | 77 | 200 | 1.7 | 1.7 | 0.00 | 0.00 | 0.00 | 44 | 1017.0 |
| 20260504201747 | 78 | 300 | 1.7 | 0.9 | 0.00 | 0.00 | 0.00 | 44 | 1017.1 |
| 20260504201244 | 78 | 198 | 0.9 | 0.9 | 0.00 | 0.00 | 0.00 | 44 | 1016.8 |
| 20260504200742 | 79 | 136 | 0.9 | 0.9 | 0.00 | 0.00 | 0.00 | 43 | 1017.1 |
| 20260504200237 | 78 | 22 | 0.9 | 0.9 | 0.00 | 0.00 | 0.00 | 43 | 1016.8 |
| 20260504195734 | 78 | 134 | 0.9 | 0.9 | 0.00 | 0.00 | 0.00 | 42 | 1017.2 |
| 20260504195230 | 80 | 115 | 2.6 | 2.6 | 0.00 | 0.00 | 0.00 | 40 | 1017.2 |
| 20260504194728 | 80 | 66 | 1.7 | 1.7 | 0.00 | 0.00 | 0.00 | 40 | 1017.3 |
| 20260504194223 | 79 | 20 | 0.9 | 0.9 | 0.00 | 0.00 | 0.00 | 40 | 1017.3 |
| 20260504193720 | 79 | 143 | 0.9 | 1.7 | 0.00 | 0.00 | 0.00 | 39 | 1017.6 |
| 20260504193218 | 79 | 148 | 0.9 | 0.9 | 0.00 | 0.00 | 0.00 | 40 | 1017.6 |
| 20260504192716 | 79 | 150 | 0.9 | 0.9 | 0.00 | 0.00 | 0.00 | 38 | 1017.6 |
| 20260504192213 | 80 | 6 | 1.7 | 1.7 | 0.00 | 0.00 | 0.00 | 38 | 1017.7 |
| 20260504191712 | 81 | 163 | 0.9 | 1.7 | 0.00 | 0.00 | 0.00 | 39 | 1018.0 |
| 20260504191208 | 80 | 252 | 0.0 | 0.0 | 0.00 | 0.00 | 0.00 | 40 | 1017.7 |
| 20260504190704 | 80 | 195 | 0.0 | 0.0 | 0.00 | 0.00 | 0.00 | 39 | 1017.6 |
| 20260504190200 | 80 | 179 | 0.9 | 0.9 | 0.00 | 0.00 | 0.00 | 38 | 1017.8 |
| 20260504185657 | 80 | 158 | 1.7 | 1.7 | 0.00 | 0.00 | 0.00 | 37 | 1017.9 |
| 20260504185153 | 80 | 222 | 0.9 | 0.9 | 0.00 | 0.00 | 0.00 | 36 | 1017.8 |
| 20260504184650 | 80 | 138 | 0.9 | 0.9 | 0.00 | 0.00 | 0.00 | 38 | 1018.1 |
| 20260504184145 | 80 | 175 | 0.9 | 0.9 | 0.00 | 0.00 | 0.00 | 36 | 1018.0 |
| 20260504183642 | 80 | 169 | 0.0 | 0.9 | 0.00 | 0.00 | 0.00 | 37 | 1018.0 |
| 20260504183139 | 80 | 149 | 0.9 | 0.9 | 0.00 | 0.00 | 0.00 | 35 | 1018.0 |
| 20260504182637 | 82 | 247 | 0.0 | 0.9 | 0.00 | 0.00 | 0.00 | 34 | 1018.1 |
| 20260504182134 | 81 | 224 | 0.9 | 0.9 | 0.00 | 0.00 | 0.00 | 34 | 1018.2 |
| 20260504181632 | 81 | 138 | 0.9 | 0.9 | 0.00 | 0.00 | 0.00 | 33 | 1018.1 |
| 20260504181129 | 82 | 1 | 1.7 | 2.6 | 0.00 | 0.00 | 0.00 | 33 | 1018.1 |
| 20260504180628 | 82 | 182 | 2.6 | 2.6 | 0.00 | 0.00 | 0.00 | 32 | 1018.3 |
| 20260504180126 | 82 | 66 | 0.9 | 0.9 | 0.00 | 0.00 | 0.00 | 32 | 1018.1 |
| 20260504175623 | 82 | 191 | 0.9 | 0.0 | 0.00 | 0.00 | 0.00 | 33 | 1018.4 |
| 20260504175120 | 82 | 10 | 1.7 | 1.7 | 0.00 | 0.00 | 0.00 | 30 | 1018.3 |
| 20260504174618 | 82 | 133 | 0.9 | 0.9 | 0.00 | 0.00 | 0.00 | 33 | 1018.6 |
| 20260504174114 | 81 | 338 | 1.7 | 1.7 | 0.00 | 0.00 | 0.00 | 32 | 1018.5 |
| 20260504173611 | 81 | 151 | 1.7 | 1.7 | 0.00 | 0.00 | 0.00 | 31 | 1018.7 |
| 20260504173109 | 81 | 160 | 0.0 | 0.0 | 0.00 | 0.00 | 0.00 | 33 | 1018.5 |
| 20260504172605 | 81 | 29 | 1.7 | 1.7 | 0.00 | 0.00 | 0.00 | 31 | 1018.7 |
| 20260504172101 | 82 | 155 | 1.7 | 0.9 | 0.00 | 0.00 | 0.00 | 32 | 1018.6 |
| 20260504171558 | 82 | 84 | 0.9 | 0.9 | 0.00 | 0.00 | 0.00 | 33 | 1018.8 |
| 20260504171055 | 81 | 65 | 0.9 | 0.9 | 0.00 | 0.00 | 0.00 | 31 | 1018.6 |
| 20260504170551 | 81 | 121 | 0.9 | 0.9 | 0.00 | 0.00 | 0.00 | 30 | 1018.8 |